Date String (YYYY-MM-DD hh:mm:ss) UTC,Instrument flags,Ambient pressure (hPa),Sample flow (lpm),Bypass flow (lpm),Sample temperature (°C),Ambient temperature (°C),ASC tube jacket temperature (°C),LED temperature (°C),Box temperature (°C),Sample RH (%),Span deviation,Mass concentration (μg/m³),Mass concentration (μg/m³),Mass concentration (μg/m³)
DateTimeUTC,F1_M11,P_M11,Q1_M11,Q2_M11,T1_M11,T2_M11,T3_M11,T4_M11,T5_M11,U1_M11,ZSPAN_M11,X0_M11,X2_M11,X1_M11
2022-06-01 19:00:00,,0831.6,5.00,0.00,26.1,25.2,00.0,34.9,28.0,22.2,0000.0,0002.97,0002.43,0002.20
2022-06-01 19:01:00,,0831.6,4.98,0.00,26.1,25.2,00.0,34.9,28.1,22.0,0000.0,0002.90,0002.42,0002.21
2022-06-01 19:02:00,,0831.6,5.01,0.00,26.1,25.2,00.0,34.9,28.1,22.1,0000.0,0002.91,0002.43,0002.20
2022-06-01 19:03:00,,0831.6,4.99,0.00,26.1,25.3,00.0,34.9,28.1,22.0,0000.0,0002.88,0002.40,0002.17
2022-06-01 19:04:00,,0831.6,4.99,0.00,26.1,25.3,00.0,35.0,28.1,22.3,0000.0,0002.84,0002.36,0002.13
2022-06-01 19:05:00,,0831.5,4.99,0.00,26.2,25.3,00.0,35.0,28.1,22.8,0000.0,0002.81,0002.32,0002.08
2022-06-01 19:06:00,,0831.6,5.01,0.00,26.2,25.3,00.0,35.0,28.2,22.6,0000.0,0002.80,0002.26,0002.01
2022-06-01 19:07:00,,0831.5,4.99,0.00,26.2,25.3,00.0,35.0,28.2,22.5,0000.0,0002.82,0002.22,0001.95
2022-06-01 19:08:00,,0831.6,4.99,0.00,26.2,25.4,00.0,35.0,28.2,22.2,0000.0,0002.65,0002.12,0001.87
2022-06-01 19:09:00,,0831.6,5.00,0.00,26.2,25.4,00.0,35.0,28.2,22.2,0000.0,0002.56,0002.05,0001.81
2022-06-01 19:10:00,,0831.6,5.00,0.00,26.2,25.4,00.0,35.0,28.2,22.3,0000.0,0002.46,0001.99,0001.78
2022-06-01 19:11:00,,0831.5,4.99,0.00,26.2,25.4,00.0,35.1,28.2,22.5,0000.0,0002.52,0002.00,0001.79
2022-06-01 19:12:00,,0831.5,5.01,0.00,26.2,25.4,00.0,35.1,28.2,22.1,0000.0,0002.56,0002.01,0001.77
2022-06-01 19:13:00,,0831.5,5.00,0.00,26.3,25.4,00.0,35.1,28.2,22.0,0000.0,0002.54,0001.99,0001.77
2022-06-01 19:14:00,,0831.4,5.01,0.00,26.3,25.4,00.0,35.1,28.2,22.3,0000.0,0002.66,0002.01,0001.79
2022-06-01 19:15:00,,0831.4,4.99,0.00,26.3,25.4,00.0,35.1,28.2,21.8,0000.0,0002.71,0002.04,0001.81
2022-06-01 19:16:00,,0831.4,5.00,0.00,26.3,25.4,00.0,35.1,28.2,21.8,0000.0,0002.75,0002.07,0001.83
2022-06-01 19:17:00,,0831.4,5.00,0.00,26.3,25.4,00.0,35.1,28.2,21.6,0000.0,0002.75,0002.10,0001.87
2022-06-01 19:18:00,,0831.4,4.99,0.00,26.3,25.4,00.0,35.1,28.3,21.6,0000.0,0002.74,0002.13,0001.91
2022-06-01 19:19:00,,0831.4,5.01,0.00,26.3,25.4,00.0,35.1,28.3,21.7,0000.0,0002.88,0002.21,0001.96
2022-06-01 19:20:00,,0831.4,4.99,0.00,26.3,25.5,00.0,35.2,28.3,21.7,0000.0,0002.95,0002.26,0002.01
2022-06-01 19:21:00,,0831.4,5.00,0.00,26.3,25.5,00.0,35.2,28.3,22.1,0000.0,0003.62,0002.31,0002.05
2022-06-01 19:22:00,,0831.4,5.00,0.00,26.3,25.5,00.0,35.2,28.3,21.7,0000.0,0003.89,0002.31,0002.04
2022-06-01 19:23:00,,0831.4,4.99,0.00,26.3,25.5,00.0,35.2,28.3,21.9,0000.0,0003.94,0002.33,0002.04
2022-06-01 19:24:00,,0831.4,5.00,0.00,26.4,25.5,00.0,35.2,28.3,21.9,0000.0,0003.96,0002.34,0002.03
2022-06-01 19:25:00,,0831.4,5.00,0.00,26.4,25.5,00.0,35.2,28.3,22.2,0000.0,0003.80,0002.29,0002.00
2022-06-01 19:26:00,,0831.4,5.00,0.00,26.4,25.5,00.0,35.2,28.4,22.2,0000.0,0003.74,0002.25,0001.97
2022-06-01 19:27:00,,0831.4,5.01,0.00,26.4,25.6,00.0,35.2,28.4,21.6,0000.0,0003.88,0002.27,0001.96
2022-06-01 19:28:00,,0831.4,5.00,0.00,26.4,25.6,00.0,35.2,28.4,21.7,0000.0,0003.91,0002.28,0001.95
2022-06-01 19:29:00,,0831.4,4.99,0.00,26.4,25.6,00.0,35.2,28.4,21.6,0000.0,0003.86,0002.25,0001.92
2022-06-01 19:30:00,,0831.4,5.02,0.00,26.4,25.6,00.0,35.3,28.4,21.4,0000.0,0003.79,0002.22,0001.90
2022-06-01 19:31:00,,0831.2,5.00,0.00,26.5,25.6,00.0,35.3,28.4,21.3,0000.0,0003.78,0002.20,0001.89
2022-06-01 19:32:00,,0831.1,5.00,0.00,26.5,25.6,00.0,35.3,28.4,21.5,0000.0,0003.40,0002.18,0001.87
2022-06-01 19:33:00,,0831.1,5.00,0.00,26.5,25.6,00.0,35.3,28.5,21.3,0000.0,0002.97,0002.16,0001.87
2022-06-01 19:34:00,,0831.2,5.00,0.00,26.5,25.7,00.0,35.3,28.5,21.9,0000.0,0002.91,0002.14,0001.87
2022-06-01 19:35:00,,0831.1,5.00,0.00,26.5,25.7,00.0,35.3,28.5,22.1,0000.0,0002.90,0002.12,0001.86
2022-06-01 19:36:00,,0831.1,5.00,0.00,26.5,25.7,00.0,35.3,28.5,22.0,0000.0,0002.90,0002.12,0001.86
2022-06-01 19:37:00,,0831.1,4.99,0.00,26.5,25.7,00.0,35.3,28.5,21.5,0000.0,0002.97,0002.16,0001.87
2022-06-01 19:38:00,,0831.2,5.00,0.00,26.5,25.7,00.0,35.4,28.5,21.5,0000.0,0002.84,0002.13,0001.86
2022-06-01 19:39:00,,0831.2,5.00,0.00,26.5,25.7,00.0,35.4,28.5,21.5,0000.0,0002.78,0002.11,0001.86
2022-06-01 19:40:00,,0831.1,5.00,0.00,26.6,25.7,00.0,35.4,28.5,21.6,0000.0,0002.75,0002.07,0001.83
2022-06-01 19:41:00,,0831.1,5.00,0.00,26.6,25.7,00.0,35.4,28.5,21.5,0000.0,0002.69,0002.03,0001.81
2022-06-01 19:42:00,,0831.2,5.01,0.00,26.6,25.7,00.0,35.4,28.5,21.5,0000.0,0002.78,0002.03,0001.80
2022-06-01 19:43:00,,0831.2,4.99,0.00,26.6,25.7,00.0,35.4,28.5,21.4,0000.0,0002.68,0002.04,0001.79
2022-06-01 19:44:00,,0831.2,5.00,0.00,26.6,25.7,00.0,35.4,28.6,21.7,0000.0,0002.65,0002.01,0001.77
2022-06-01 19:45:00,,0831.2,5.00,0.00,26.6,25.8,00.0,35.4,28.6,22.2,0000.0,0002.65,0002.01,0001.77
2022-06-01 19:46:00,,0831.2,5.00,0.00,26.6,25.8,00.0,35.4,28.6,22.1,0000.0,0002.61,0002.02,0001.80
2022-06-01 19:47:00,,0831.1,4.99,0.00,26.6,25.8,00.0,35.5,28.6,22.0,0000.0,0002.58,0002.02,0001.82
2022-06-01 19:48:00,,0831.1,5.01,0.00,26.6,25.8,00.0,35.5,28.6,21.8,0000.0,0002.51,0002.01,0001.83
2022-06-01 19:49:00,,0831.0,4.98,0.00,26.7,25.8,00.0,35.5,28.6,21.4,0000.0,0002.57,0002.06,0001.88
2022-06-01 19:50:00,,0831.0,5.00,0.00,26.7,25.8,00.0,35.5,28.6,21.5,0000.0,0002.61,0002.10,0001.94
2022-06-01 19:51:00,,0831.0,5.00,0.00,26.7,25.8,00.0,35.5,28.6,21.7,0000.0,0002.68,0002.16,0002.00
2022-06-01 19:52:00,,0831.0,5.00,0.00,26.7,25.8,00.0,35.5,28.6,21.5,0000.0,0002.80,0002.20,0002.04
2022-06-01 19:53:00,,0831.0,5.01,0.00,26.7,25.8,00.0,35.5,28.7,21.8,0000.0,0002.67,0002.19,0002.06
2022-06-01 19:54:00,,0830.9,5.00,0.00,26.7,25.9,00.0,35.5,28.7,21.7,0000.0,0002.62,0002.19,0002.08
2022-06-01 19:55:00,,0831.0,5.01,0.00,26.7,25.9,00.0,35.5,28.7,21.6,0000.0,0002.68,0002.23,0002.11
2022-06-01 19:56:00,,0831.0,5.01,0.00,26.7,25.9,00.0,35.6,28.7,21.6,0000.0,0002.66,0002.24,0002.13
2022-06-01 19:57:00,,0831.0,4.98,0.00,26.7,25.9,00.0,35.6,28.7,21.7,0000.0,0002.70,0002.26,0002.13
2022-06-01 19:58:00,,0831.0,5.01,0.00,26.8,25.9,00.0,35.6,28.7,21.7,0000.0,0002.70,0002.26,0002.12
2022-06-01 19:59:00,,0831.0,5.00,0.00,26.8,25.9,00.0,35.6,28.7,21.9,0000.0,0002.75,0002.26,0002.10
